[[{"header":{"parameterUnit":"m.s-1","parameterCategory":1,"la1":30.2991,"la2":30.254,"lo1":-89.0895,"lo2":-89.0444,"dy":0.0017,"dx":0.0017,"nx":28,"ny":28,"refTime":"2024-08-18T09:00:00:Z","depth":0,"parameterNumber":2,"parameterNumberName":"U-component_of_WINDS"},"data":[0,0,0,0,0,0,0,0,0,0,0,0,0,0,0,0,0,0,0,0,0,0,0,0,0,0,0,0,0,0,0,0,0,0,0,0,0,0,0,0,0,0,0,0,0,0,0,0,0,0,0,0,0,0,0,0,0,0,5.319,5.3191,0,5.3323,5.3324,5.3326,5.3213,5.3208,5.3203,5.3199,5.3343,5.3351,5.3359,0,0,0,0,0,0,0,0,0,0,0,0,0,5.2844,5.2851,5.319,5.3191,5.3193,5.3323,5.3324,5.3326,5.3214,5.3208,5.3202,5.3197,5.334,5.335,5.336,0,0,0,0,0,0,0,0,0,0,0,0,0,5.2988,5.2854,5.3189,5.3152,5.315,5.3322,5.3324,5.3327,5.3215,5.3208,5.3201,5.3194,5.3337,5.3349,5.3361,5.3579,0,0,5.3399,5.3404,0,0,0,0,0,0,0,0,5.298,5.3001,5.3156,5.3155,5.3153,5.3244,5.3255,5.3412,5.3217,5.3191,5.3199,5.3191,5.3316,5.333,5.3371,5.3586,5.3592,5.34,5.3408,5.3413,5.3416,0,0,0,0,0,0,0,5.297,5.2994,5.3242,5.3159,5.3157,5.3131,5.3144,5.3284,5.3292,5.3192,5.3184,5.3201,5.3314,5.3359,5.3373,5.3594,5.34,5.3411,5.3418,5.3423,5.3995,5.4002,0,0,0,0,0,0,5.2963,5.2987,5.3238,5.3246,5.3047,5.3143,5.3157,5.3222,5.329,5.3293,5.3207,5.3196,5.3341,5.3359,5.3378,5.3637,5.3413,5.3424,5.3431,5.3987,5.3996,5.4005,0,0,0,0,0,0,5.2956,5.2986,5.3233,5.3115,5.3144,5.3156,5.323,5.3228,5.3273,5.3301,5.3302,5.3251,5.3336,5.336,5.3529,5.364,5.343,5.3441,5.3978,5.399,5.4001,5.4158,0,0,0,0,0,0,5.2947,5.2985,5.3066,5.3117,5.3151,5.3381,5.3237,5.3236,5.3294,5.328,5.3343,5.3346,5.3333,5.3511,5.3542,5.3654,5.3451,5.3968,5.3983,5.3997,5.4143,5.4173,5.4199,0,0,0,0,0,5.2935,5.3107,5.3071,5.3102,5.3252,5.3387,5.3407,5.3385,5.3303,5.3386,5.3404,5.3344,5.3623,5.353,5.3563,5.368,5.3961,5.3979,5.3996,5.413,5.4167,5.4199,0,0,0,0,0,0,5.3071,5.3113,5.3073,5.3267,5.3324,5.3368,5.3472,5.3426,5.3509,5.3493,5.3465,5.3481,5.3658,5.3686,5.3581,5.3894,5.3779,5.3804,5.387,5.3905,5.3933,5.3923,5.3461,0,0,0,0,0,5.3123,5.3227,5.3259,5.3426,5.3457,5.346,5.3518,5.3496,5.3555,5.358,5.361,5.3672,5.3773,5.3841,5.3936,5.4146,5.4158,5.4243,5.4271,5.4294,5.4317,5.443,5.4468,5.4062,5.4062,5.4062,0,0,5.3233,5.3268,5.3336,5.3455,5.3496,5.3606,5.3481,5.3603,5.3685,5.3599,5.3759,5.3784,5.3851,5.4042,5.4127,5.407,5.4431,5.4317,5.4335,5.4345,5.4452,5.449,5.4524,5.4074,5.4072,5.407,0,0,5.3489,5.3526,5.3669,5.3713,5.3777,5.3777,5.3812,5.3863,5.3875,5.4035,5.3973,5.4071,5.4247,5.4297,5.4345,5.462,5.4569,5.4652,5.4801,5.4911,5.4943,5.4971,5.5069,5.5105,5.4674,5.4674,5.4674,0,5.3618,5.3779,5.3749,5.3875,5.393,5.3854,5.4,5.4045,5.4138,5.4179,5.4113,5.433,5.4371,5.4571,5.4638,5.468,5.472,5.4645,5.494,5.4968,5.4994,5.5088,5.5125,5.4684,5.4683,5.4682,5.4681,0,5.3934,5.4047,5.4156,5.4244,5.4311,5.4447,5.4439,5.4511,5.4483,5.4492,5.4656,5.4701,5.4804,5.485,5.4826,5.5048,5.501,5.4944,5.4827,5.5043,5.513,5.5166,5.4698,5.4694,5.4691,5.4689,0,0,5.4281,5.435,5.439,5.4429,5.4494,5.4582,5.4715,5.4812,5.4874,5.4941,5.5053,5.5202,5.514,5.5195,5.5176,5.5273,5.5488,5.5194,5.5195,5.5247,5.5736,5.5786,5.5828,5.5454,5.546,5.5466,5.573,0,5.4539,5.4767,5.4744,5.4962,5.5066,5.4996,5.5111,5.5165,5.5176,5.5268,5.5281,5.5387,5.5297,5.533,5.5423,5.5442,5.5585,5.5422,5.5559,5.5564,5.5544,5.5873,5.5927,5.6174,5.5764,5.577,5.5774,0,5.4871,5.4946,5.5174,5.5222,5.5265,5.5369,5.5456,5.5544,5.5604,5.5605,5.5667,5.563,5.5766,5.5646,5.5833,5.5723,5.5777,5.5795,5.5804,5.5816,5.5682,5.5895,5.6252,5.629,5.5827,5.5823,5.5819,0,5.5101,5.526,5.5416,5.5452,5.5512,5.5587,5.5616,5.5668,5.5728,5.5805,5.5844,5.5937,5.5989,5.6063,5.6053,5.5967,5.6244,5.6123,5.625,5.6251,5.6312,5.6308,5.6684,5.6347,5.6347,5.6346,5.6345,0,5.5392,5.5534,5.552,5.5616,5.5774,5.5747,5.5904,5.5924,5.5971,5.6072,5.6018,5.6113,5.6095,5.6191,5.6185,5.6341,5.6365,5.6371,5.6367,5.6376,5.6375,5.6411,5.6394,5.6356,5.6354,5.6352,5.635,0,5.5676,5.5672,5.5837,5.588,5.5894,5.6008,5.6045,5.6137,5.6143,5.6271,5.63,5.631,5.6421,5.6418,5.6545,5.654,5.6732,5.6709,5.6711,5.6706,5.6833,5.6821,5.7245,5.73,5.6928,5.6931,5.6934,0,5.5862,5.5969,5.6022,5.6084,5.6117,5.6218,5.6278,5.6256,5.6322,5.6397,5.648,5.6585,5.6667,5.6847,5.6868,5.6965,5.6944,5.7085,5.6958,5.6963,5.6946,5.6939,5.695,5.7111,5.7115,5.7118,5.7121,0,5.6193,5.6185,5.6272,5.636,5.6432,5.65,5.6563,5.6618,5.6603,5.6679,5.6789,5.6853,5.6981,5.7086,5.7179,5.721,5.7165,5.7161,5.7195,5.7205,5.7202,5.7205,5.6779,5.7151,5.7148,5.7146,5.7145,5.7143,5.6433,5.6525,5.6576,5.6675,5.6719,5.6779,5.6867,5.6883,5.6974,5.7074,5.7056,5.7181,5.7238,5.7356,5.7397,5.7495,5.7445,5.7495,5.7508,5.752,5.7534,5.7186,5.7512,5.7511,5.751,5.7509,5.7509,0,5.6761,5.679,5.6881,5.6969,5.7048,5.6994,5.7061,5.7131,5.7239,5.7295,5.7377,5.7504,5.7606,5.7634,5.7732,5.7805,5.7786,5.7832,5.7826,5.7834,5.7573,5.7533,5.7845,5.7845,5.7845,5.7845,5.7845,5.7844,5.6941,5.7093,5.7091,5.7265,5.7294,5.7413,5.7455,5.751,5.7554,5.7698,5.7781,5.7797,5.7842,5.7943,5.8034,5.804,5.8079,5.8133,5.8131,5.7886,5.7853,5.7821,5.7783,5.8142,5.8142,5.8383,5.8385,5.8387]},{"header":{"parameterUnit":"m.s-1","parameterCategory":1,"la1":30.2991,"la2":30.254,"lo1":-89.0895,"lo2":-89.0444,"dy":0.0017,"dx":0.0017,"nx":28,"ny":28,"refTime":"2024-08-18T09:00:00:Z","depth":0,"parameterNumber":3,"parameterNumberName":"V-component_of_WINDS"},"data":[0,0,0,0,0,0,0,0,0,0,0,0,0,0,0,0,0,0,0,0,0,0,0,0,0,0,0,0,0,0,0,0,0,0,0,0,0,0,0,0,0,0,0,0,0,0,0,0,0,0,0,0,0,0,0,0,0,0,2.0606,2.0607,0,2.0682,2.0683,2.0684,2.0671,2.0669,2.0668,2.0667,2.0745,2.0748,2.0751,0,0,0,0,0,0,0,0,0,0,0,0,0,2.0447,2.045,2.0606,2.0607,2.0608,2.0682,2.0683,2.0684,2.0671,2.0669,2.0668,2.0666,2.0744,2.0748,2.0752,0,0,0,0,0,0,0,0,0,0,0,0,0,2.0519,2.0451,2.0606,2.061,2.0611,2.0682,2.0683,2.0684,2.0671,2.0669,2.0667,2.0665,2.0742,2.0747,2.0752,2.0823,0,0,2.0767,2.0769,0,0,0,0,0,0,0,0,2.0515,2.0525,2.0608,2.061,2.0611,2.0665,2.0656,2.0731,2.0672,2.0648,2.0667,2.0664,2.072,2.0726,2.0745,2.0827,2.083,2.0768,2.0771,2.0773,2.0774,0,0,0,0,0,0,0,2.051,2.0521,2.0636,2.061,2.0611,2.0608,2.0616,2.067,2.0694,2.065,2.065,2.0659,2.072,2.074,2.0747,2.0831,2.0768,2.0772,2.0775,2.0777,2.0973,2.0975,0,0,0,0,0,0,2.0504,2.0517,2.0633,2.0638,2.0557,2.0612,2.0621,2.065,2.0694,2.0699,2.066,2.0658,2.0733,2.0741,2.075,2.0835,2.0773,2.0778,2.078,2.0971,2.0973,2.0976,0,0,0,0,0,0,2.05,2.0514,2.063,2.0578,2.0592,2.0617,2.0649,2.0652,2.0672,2.0701,2.0706,2.0677,2.0732,2.0743,2.0804,2.0837,2.078,2.0784,2.0968,2.0971,2.0974,2.1006,0,0,0,0,0,0,2.0496,2.0513,2.0541,2.0578,2.0595,2.0685,2.0651,2.0655,2.0681,2.0679,2.0718,2.0722,2.0731,2.0797,2.0809,2.0843,2.0788,2.0965,2.0969,2.0973,2.1002,2.101,2.1017,0,0,0,0,0,2.049,2.0547,2.0542,2.0556,2.063,2.0687,2.0696,2.0705,2.0684,2.0712,2.073,2.0721,2.0831,2.0804,2.0817,2.0853,2.0963,2.0968,2.0973,2.0999,2.1009,2.1017,0,0,0,0,0,0,2.0513,2.0552,2.0547,2.0618,2.0649,2.0684,2.072,2.0715,2.0753,2.0749,2.0757,2.0766,2.0829,2.0847,2.0815,2.0923,2.0894,2.0902,2.0909,2.0919,2.0926,2.092,2.0792,0,0,0,0,0,2.0526,2.0569,2.0601,2.066,2.0676,2.0695,2.072,2.0724,2.0756,2.0769,2.0792,2.0824,2.0865,2.0893,2.0933,2.1004,2.1012,2.1035,2.1043,2.1048,2.1056,2.1093,2.1104,2.0992,2.0992,2.0992,0,0,2.0554,2.0581,2.0608,2.0665,2.069,2.0733,2.0706,2.0754,2.0786,2.0777,2.0837,2.0854,2.089,2.0956,2.0987,2.0973,2.1088,2.1055,2.1059,2.1063,2.11,2.111,2.112,2.0995,2.0995,2.0994,0,0,2.0628,2.0652,2.0704,2.0729,2.0766,2.0778,2.079,2.0826,2.0837,2.0897,2.089,2.0928,2.1,2.1026,2.1048,2.1128,2.1122,2.1141,2.1179,2.1216,2.1225,2.1233,2.1261,2.1271,2.1148,2.1148,2.1148,0,2.0658,2.0724,2.0731,2.0779,2.0804,2.0797,2.0849,2.0872,2.0921,2.0938,2.0922,2.101,2.1034,2.1106,2.1125,2.1144,2.1158,2.1137,2.1223,2.1231,2.1239,2.1266,2.1276,2.115,2.115,2.1149,2.1149,0,2.0759,2.0804,2.0842,2.0888,2.0917,2.0967,2.0981,2.1009,2.101,2.1023,2.1084,2.1111,2.1156,2.1173,2.1175,2.1245,2.1235,2.1221,2.1193,2.1251,2.1277,2.1287,2.1153,2.1152,2.1152,2.1151,0,0,2.0851,2.0899,2.0913,2.0933,2.0972,2.1008,2.1056,2.11,2.1124,2.1156,2.1197,2.1257,2.1244,2.1269,2.1272,2.1305,2.1366,2.1287,2.1287,2.13,2.1444,2.1455,2.1467,2.1361,2.1363,2.1365,2.1441,0,2.0928,2.1014,2.1021,2.1099,2.114,2.1132,2.1174,2.1203,2.1216,2.1253,2.1267,2.1309,2.1289,2.1304,2.1335,2.1352,2.1395,2.1346,2.1399,2.14,2.1391,2.148,2.1492,2.1564,2.1451,2.1453,2.1454,0,2.103,2.1065,2.1147,2.1179,2.1197,2.1235,2.1274,2.131,2.1341,2.1348,2.1375,2.1374,2.1423,2.1391,2.1458,2.1425,2.1447,2.1458,2.1461,2.1466,2.1431,2.1489,2.1586,2.1597,2.147,2.1469,2.1468,0,2.1089,2.1157,2.1214,2.1231,2.127,2.1297,2.1314,2.1344,2.1369,2.1403,2.1419,2.1459,2.1481,2.1511,2.152,2.1496,2.1586,2.1556,2.1593,2.1593,2.1614,2.1612,2.1716,2.1627,2.1627,2.1626,2.1626,0,2.1174,2.1225,2.1241,2.1276,2.1331,2.1338,2.1392,2.1408,2.1434,2.1471,2.1466,2.1502,2.1511,2.1548,2.1555,2.1609,2.1619,2.1626,2.1627,2.1627,2.1626,2.1641,2.1637,2.1629,2.1629,2.1628,2.1627,0,2.125,2.1263,2.1325,2.1356,2.1365,2.1404,2.143,2.1464,2.1475,2.1523,2.1534,2.1553,2.1596,2.1607,2.1659,2.1663,2.1727,2.1723,2.1716,2.1716,2.1753,2.175,2.1871,2.1888,2.1787,2.1788,2.1789,0,2.1304,2.1343,2.1377,2.1402,2.142,2.1461,2.1486,2.1493,2.152,2.1557,2.1586,2.1627,2.1662,2.173,2.1748,2.1787,2.1784,2.1824,2.179,2.1788,2.1785,2.1783,2.1786,2.1831,2.1832,2.1833,2.1834,0,2.1399,2.1403,2.144,2.1479,2.1509,2.154,2.1569,2.159,2.1601,2.163,2.1674,2.17,2.1752,2.1794,2.1832,2.1849,2.1843,2.1844,2.1854,2.1855,2.1849,2.1852,2.1734,2.1841,2.1841,2.184,2.184,2.1839,2.1466,2.1499,2.1528,2.1569,2.1592,2.1619,2.1652,2.1667,2.1703,2.1746,2.1747,2.1795,2.1823,2.1874,2.1893,2.193,2.1918,2.1933,2.1937,2.1941,2.1944,2.1842,2.1937,2.1936,2.1936,2.1936,2.1936,0,2.156,2.1578,2.1615,2.1657,2.1688,2.1679,2.1711,2.1738,2.1779,2.1806,2.1839,2.1889,2.1928,2.1948,2.1987,2.2013,2.2011,2.2023,2.2021,2.2025,2.1953,2.194,2.2023,2.2023,2.2023,2.2023,2.2023,2.2023,2.1613,2.1668,2.1675,2.1741,2.1759,2.1805,2.1824,2.1848,2.187,2.1925,2.1958,2.197,2.1994,2.2035,2.207,2.2075,2.209,2.2103,2.2107,2.2039,2.203,2.2022,2.2009,2.2106,2.2107,2.2176,2.2176,2.2177]}]]